www.pogodaiklimat.ru
ПОГОДА в Козенице

Архив погоды в Козенице (Польша)

Время
(UTC), дата
19 13.05
20 13.05
21 13.05
22 13.05
23 13.05
00 14.05
01 14.05
02 14.05
03 14.05
04 14.05
05 14.05
06 14.05
07 14.05
08 14.05
09 14.05
10 14.05
11 14.05
12 14.05
13 14.05
14 14.05
15 14.05
16 14.05
17 14.05
18 14.05
19 14.05
20 14.05
21 14.05
22 14.05
23 14.05
00 15.05
01 15.05
02 15.05
03 15.05
04 15.05
05 15.05
06 15.05
07 15.05
08 15.05
09 15.05
10 15.05
11 15.05
12 15.05
13 15.05
14 15.05
15 15.05
16 15.05
17 15.05
18 15.05
19 15.05
20 15.05
21 15.05
22 15.05
23 15.05
00 16.05
01 16.05
02 16.05
03 16.05
04 16.05
05 16.05
06 16.05
07 16.05
08 16.05
09 16.05
10 16.05
11 16.05
12 16.05
13 16.05
14 16.05
15 16.05
16 16.05
17 16.05
18 16.05
19 16.05
20 16.05
21 16.05
22 16.05
23 16.05
00 17.05
01 17.05
02 17.05
03 17.05
04 17.05
05 17.05
06 17.05
07 17.05
08 17.05
09 17.05
10 17.05
11 17.05
12 17.05
13 17.05
14 17.05
15 17.05
16 17.05
17 17.05
18 17.05
19 17.05
20 17.05
21 17.05
22 17.05
23 17.05
00 18.05
01 18.05
02 18.05
03 18.05
04 18.05
05 18.05
06 18.05
07 18.05
08 18.05
09 18.05
10 18.05
11 18.05
12 18.05
13 18.05
14 18.05
15 18.05
16 18.05
17 18.05
18 18.05
19 18.05
20 18.05
21 18.05
22 18.05
23 18.05
00 19.05
01 19.05
02 19.05
03 19.05
04 19.05
05 19.05
06 19.05
07 19.05
08 19.05
09 19.05
10 19.05
11 19.05
12 19.05
13 19.05
14 19.05
15 19.05
16 19.05
17 19.05
18 19.05
19 19.05
20 19.05
21 19.05
22 19.05
23 19.05
00 20.05
01 20.05
02 20.05
03 20.05
04 20.05
05 20.05
06 20.05
07 20.05
08 20.05
09 20.05
10 20.05
11 20.05
12 20.05
13 20.05
14 20.05
15 20.05
16 20.05
17 20.05
Ветер
(напр.,м/с)
Видим. Явления Облачность Т
(С)
Тd
(С)
f
(%)
Тe
(С)
Тes
(С)
Комфортность P
(гПа)
Po
(гПа)
Тmin
(С)
Tmax
(С)
R
(мм)
R24
(мм)
S
(см)
ЮЗ 1 50 км 1/0
[Ci fib]
+10.1 +2.9 61 +10 +10 1018.9 1003.6
ЮЗ 1 50 км 1/0
[Ci fib]
+7.2 +2.1 70 +7 +7 1019.0 1003.6
З 1 45 км н/о +5.7 +2.2 78 +5 +5 1019.1 1003.6
Ю 1 50 км н/о +4.0 +1.5 84 +3 +3 1019.2 1003.6
ЮЗ 1 50 км н/о +3.1 +1.1 87 +2 +2 1019.1 1003.5
штиль 0 50 км н/о +2.4 +1.1 91 +1 +1 1019.1 1003.4
З 1 40 км н/о +1.8 +0.6 92 -0 -0 1018.9 1003.2
ЮВ 1 30 км н/о +1.0 +0.1 94 -1 -1 1019.2 1003.4
З 1 30 км н/о +0.9 +0.2 95 -1 -1 1019.2 1003.4
Ю 1 35 км н/о +4.2 +2.9 91 +3 +3 1019.3 1003.7
В 1 30 км 1/0
[Ci sp]
+9.8 +4.8 71 +9 +12 1019.1 1003.8
ЮВ 1 19 км 1/0
[Ci sp]
+13.5 +5.9 60 +14 +20 1019.0 1003.9 +0.9 +15.5
В 1 27 км 1/0
[Ci sp]
+16.8 +4.8 45 +18 +27 1018.8 1003.9
В 1 25 км 3/1 1000 м
[Cu hum Ci sp]
+18.5 +4.3 39 +20 +32 1018.6 1003.8
В 4 35 км 5/4 1500 м
[Cu med, cong Ci sp]
+19.9 +1.8 30 +20 +26 1018.4 1003.7
В 3 30 км 6/4 2000 м
[Cu med, cong Ac trans Ci fib]
+20.2 +1.1 28 +21 +27 комфорт 1018.1 1003.4
В 3 45 км 6/4 2000 м
[Cu med, cong Ac trans Ci sp]
+20.1 +1.5 29 +21 +27 комфорт 1018.0 1003.3
ЮВ 3 {8} 35 км 8/6 2000 м
[Cu med, cong Ci sp]
+21.5 +1.2 26 +21 +26 комфорт 1017.6 1003.0
В 3 35 км 8/6 2000 м
[Cu med, cong Ci sp]
+21.5 +1.7 27 +21 +25 комфорт 1017.3 1002.7
В 3 45 км 9/9 2000 м
[Cb calv]
+20.1 +2.0 30 +21 +21 комфорт 1017.4 1002.7
В 3 45 км 9/9 1500 м
[Cu Sc]
+19.6 +2.9 33 +20 +21 1017.6 1002.9
В 3 45 км 9/8 2000 м
[Sc Ac trans]
+19.2 +3.4 35 +20 +20 1017.7 1002.9
В 3 35 км 9/3 2000 м
[Sc Ac und]
+18.5 +3.5 37 +19 +19 1017.8 1003.0
ЮВ 3 {8} 50 км 6/0
[Ac trans]
+17.5 +3.7 40 +18 +18 1018.2 1003.3 +13.4 +22.1
В 2 45 км 8/1 2000 м
[Sc Ac trans]
+16.4 +4.1 44 +17 +17 1018.7 1003.8
ЮВ 2 45 км 8/1 1500 м
[Sc Ac trans]
+15.3 +4.6 49 +15 +15 1019.3 1004.3
ЮВ 1 50 км н/о +12.4 +4.1 57 +13 +13 1019.9 1004.8
В 1 50 км н/о +8.4 +3.6 72 +8 +8 1020.5 1005.1
В 1 40 км н/о +5.9 +3.2 83 +5 +5 1020.7 1005.2
ЮВ 1 30 км н/о +4.4 +2.7 89 +3 +3 1020.8 1005.2
ЮВ 1 18 км н/о +3.4 +2.4 93 +2 +2 1021.0 1005.3
ЮВ 1 23 км н/о +2.4 +1.4 93 +1 +1 1021.1 1005.4
ЮВ 1 20 км н/о +1.8 +0.9 94 -0 -0 1021.2 1005.5
штиль 0 23 км н/о +4.1 +3.4 95 +3 +3 1021.4 1005.8
В 3 35 км 1/0
[Ci fib]
+9.9 +3.6 65 +8 +10 1021.2 1005.9
В 3 28 км 1/0
[Ci fib]
+12.3 +3.5 55 +11 +15 1021.3 1006.1 +1.7 +17.5
В 4 35 км 1/0
[Ci fib]
+14.4 +3.5 48 +13 +19 1021.3 1006.2
В 5 35 км 1/0
[Ci fib]
+16.3 +1.9 38 +15 +22 1021.2 1006.2
В 5-10 {11} 40 км 1/1 2000 м
[Cu hum]
+17.3 -0.5 30 +17 +24 1020.9 1006.0
В 5 {11} 40 км 1/1 2000 м
[Cu hum]
+18.3 +2.6 35 +18 +26 1020.9 1006.0
В 5 {11} 29 км 3/1 2000 м
[Cu hum Ci fib]
+18.4 +1.8 33 +18 +25 1020.9 1006.0
В 5 {13} 40 км 1/1 2000 м
[Cu hum]
+19.2 +2.1 32 +19 +26 1020.6 1005.8
В 5-10 {10} 30 км 1/1 2000 м
[Cu hum]
+19.5 +1.4 30 +20 +25 1020.1 1005.3
В 5-10 {10} 30 км 1/1 2000 м
[Cu hum]
+19.4 +1.4 30 +19 +24 1020.1 1005.3
ЮВ 5-11 {11} 35 км 3/1 2000 м
[Cu hum Ci fib]
+19.2 +1.2 30 +19 +22 1019.8 1005.0
ЮВ 5 {9} 35 км 1/0
[Ci fib]
+18.6 +1.1 31 +18 +20 1019.8 1005.0
ЮВ 3-8 {9} 40 км 1/0
[Ci fib]
+17.9 +1.8 34 +18 +19 1020.1 1005.2
В 2 {11} 50 км 1/0
[Ci fib]
+16.1 +1.4 37 +16 +16 1020.3 1005.3 +12.2 +20.1
В 2 50 км 1/0
[Ci fib]
+13.7 +1.7 44 +13 +13 1020.6 1005.5
В 2 50 км 1/0
[Ci fib]
+11.9 +2.1 51 +11 +11 1020.9 1005.7
В 2 50 км н/о +10.8 +2.4 56 +10 +10 1021.3 1006.0
ЮВ 2 40 км н/о +11.0 +1.5 52 +10 +10 1021.3 1006.1
В 2 50 км н/о +10.1 +0.9 53 +9 +9 1021.6 1006.3
В 1 50 км н/о +6.9 +0.8 65 +6 +6 1022.0 1006.5
В 2 50 км н/о +5.8 +0.7 70 +4 +4 1022.0 1006.5
В 2 30 км н/о +6.2 +1.3 71 +4 +4 1021.9 1006.4
В 2 35 км н/о +6.5 +1.2 69 +4 +4 1022.0 1006.5
В 1 35 км н/о +7.5 +2.0 68 +7 +7 1022.3 1006.9
В 2 30 км 6/0
[Cs]
+9.9 +2.5 60 +9 +11 1022.2 1006.9
В 3 30 км 8/0
[Ac trans Cs]
+12.5 +2.9 52 +11 +15 1022.2 1007.0 +4.2 +16.1
В 4 40 км 8/0
[Ac trans Cs]
+15.1 +3.2 45 +14 +19 1022.1 1007.1
В 4-9 {9} 35 км 6/0
[Ac trans Cs]
+17.8 +2.9 37 +18 +24 1021.7 1006.8
ЮВ 5 {13} 30 км 5/0
[Cs]
+18.8 +1.3 31 +19 +26 1021.6 1006.8
ЮВ 5-11 {11} 28 км 4/0
[Ci sp]
+19.5 +1.9 31 +20 +27 1021.3 1006.5
ЮВ 4-9 {11} 40 км 3/0
[Ci sp]
+20.1 +1.0 28 +20 +31 1021.0 1006.2
ЮВ 5-10 {13} 28 км 1/0
[Ci sp]
+20.5 +1.3 28 +21 +28 комфорт 1020.6 1005.9
В 5 {11} 28 км 1/0
[Ci fib]
+21.1 +1.9 28 +21 +27 комфорт 1020.1 1005.4
В 5 {10} 30 км 1/0
[Ci fib]
+20.9 +2.2 29 +21 +26 комфорт 1019.6 1004.9
В 5-11 {11} 30 км 1/0
[Ci fib]
+20.8 +1.6 28 +21 +24 комфорт 1019.6 1004.9
ЮВ 5-10 {11} 35 км 1/0
[Ci sp]
+20.2 +1.1 28 +20 +22 1019.4 1004.7
В 3 {9} 40 км ясно +19.4 +0.9 29 +20 +21 1019.6 1004.8
В 3 {11} 50 км ясно +17.6 +0.3 31 +18 +18 1019.8 1004.9 +12.5 +21.4
В 3 {8} 45 км ясно +15.4 +0.8 37 +15 +15 1020.4 1005.4
В 3 50 км ясно +14.0 +0.9 41 +13 +13 1020.6 1005.5
ЮВ 2 {8} 45 км н/о +13.0 +0.7 43 +13 +13 1020.7 1005.6
В 3 50 км н/о +12.7 +0.4 43 +12 +12 1020.7 1005.6
В 2 50 км н/о +10.7 +0.7 50 +10 +10 1020.9 1005.6
В 2 {8} 50 км н/о +9.1 +0.8 56 +8 +8 1021.1 1005.8
В 2 45 км н/о +8.3 +1.4 62 +7 +7 1021.1 1005.7
В 2 35 км н/о +7.4 +1.2 65 +6 +6 1020.7 1005.3
В 2 35 км н/о +7.3 +1.4 66 +5 +5 1020.5 1005.1
В 2 35 км н/о +8.9 +2.0 62 +7 +7 1020.4 1005.1
В 3 35 км ясно +11.6 +2.9 55 +10 +12 1020.1 1004.9
В 4 35 км ясно +14.6 +3.1 46 +14 +17 1019.6 1004.6 +7.3 +17.7
В 5-10 {10} 35 км ясно +17.1 +3.7 41 +16 +21 1019.1 1004.2
ЮВ 5-10 {12} 30 км ясно +18.5 +2.7 35 +18 +25 1018.9 1004.1
ЮВ 5-11 {13} 35 км ясно +20.4 +3.6 33 +21 +29 комфорт 1018.6 1003.9
В 6-14 {14} 35 км ясно +19.8 +2.2 31 +20 +26 1018.5 1003.8
В 5-13 {13} 30 км 1/0
[Ci sp]
+20.6 +1.4 28 +21 +29 комфорт 1017.9 1003.2
В 6-12 {14} 28 км 1/0
[Ci sp]
+21.6 +1.8 27 +21 +27 комфорт 1017.1 1002.5
ЮВ 5-10 {13} 35 км 3/0
[Ci sp]
+21.7 +2.4 28 +22 +28 комфорт 1016.4 1001.8
ЮВ 6-12 {12} 35 км 3/0
[Ci sp]
+21.7 +2.4 28 +22 +25 комфорт 1015.9 1001.3
ЮВ 5 {13} 35 км 3/0
[Ci sp]
+21.6 +2.8 29 +22 +24 комфорт 1015.6 1001.0
В 5-10 {10} 45 км 3/0
[Ci sp]
+21.2 +2.9 30 +21 +23 комфорт 1015.4 1000.8
В 4 40 км 3/0
[Ci sp]
+20.6 +2.9 31 +21 +22 комфорт 1015.3 1000.6
В 3 {13} 40 км 3/0
[Ac trans Ci sp]
+19.0 +3.6 36 +20 +20 1015.3 1000.6 +14.5 +22.3
В 1 45 км 5/0
[Ac und Ci sp]
+16.1 +3.8 44 +17 +17 1015.8 1000.9
В 1 50 км 5/0
[Ac trans Ci sp]
+13.8 +4.4 53 +14 +14 1015.9 1000.9
В 1 45 км н/о +9.7 +4.3 69 +9 +9 1016.0 1000.8
ЮВ 1 45 км н/о +7.7 +4.1 78 +7 +7 1016.0 1000.7
штиль 0 30 км н/о +6.4 +3.9 84 +6 +6 1016.0 1000.6
В 1 35 км н/о +5.6 +3.6 87 +4 +4 1015.8 1000.3
В 1 30 км н/о +5.1 +3.6 90 +4 +4 1015.7 1000.2
В 1 26 км н/о +4.6 +3.6 93 +3 +3 1015.6 1000.1
ЮВ 1 26 км н/о +4.2 +3.5 95 +3 +3 1015.7 1000.2
В 1 35 км н/о +8.3 +5.8 84 +8 +8 1015.8 1000.5
В 2 40 км 4/0
[Ac trans Ci fib]
+12.3 +6.3 67 +12 +14 1015.8 1000.7
ЮВ 2 35 км 5/0
[Ac cast Ci sp]
+16.0 +6.4 53 +16 +21 1015.6 1000.7 +3.7 +19.0
В 3 40 км 5/0
[Ac cast Ci sp]
+16.9 +6.7 51 +17 +23 1015.7 1000.8
ЮВ 3 35 км 4/0
[Ac trans Ci sp]
+18.8 +6.6 45 +19 +28 1015.6 1000.8
В 3 {8} 35 км 5/1 1500 м
[Sc Ac cast Ci sp]
+20.2 +6.2 40 +21 +30 комфорт 1015.5 1000.8
ЮВ 3 35 км 6/1 1500 м
[Cu hum Ac cast Ci sp]
+20.8 +6.0 38 +22 +31 комфорт 1015.4 1000.7
ЮВ 3 27 км 5/3 1500 м
[Cu med, cong Ac trans Ci fib]
+21.9 +6.5 37 +23 +31 комфорт 1014.9 1000.3
ЮВ 4 {8} 50 км 6/4 1500 м
[Cu med, cong Ac cast Ci fib]
+22.4 +8.1 40 +24 +29 комфорт 1014.6 1000.0
В 2 45 км 6/4 1500 м
[Cu med, cong Ac cast Ci fib]
+22.4 +8.1 40 +24 +30 комфорт 1014.2 999.6
В 3 40 км 6/5 1500 м
[Cb calv Ci fib]
+22.5 +7.8 39 +24 +27 комфорт 1013.7 999.2
ЮВ 2 40 км 6/5 1500 м
[Cb cap Ci fib]
+21.6 +8.1 42 +23 +26 комфорт 1013.5 998.9
ЮЗ 3 50 км 9/8 1500 м
[Cb cap Ci fib]
+19.0 +9.7 55 +20 +20 1013.9 999.2
З 1 50 км 8/6 1500 м
[Cb cap Ci fib]
+17.3 +9.7 61 +18 +19 1014.1 999.3
ЮВ 1 45 км 8/6 1000 м
[Cb calv Ci fib]
+16.0 +10.3 69 +17 +17 1014.3 999.4 +15.8 +23.6
Ю 1 50 км 6/5 1000 м
[Cb cap Ac trans]
+15.5 +10.5 72 +16 +16 1014.6 999.7
В 2 50 км 6/5 1000 м
[Cb calv Ac trans]
+13.8 +10.6 81 +13 +13 1014.5 999.5
штиль 0 35 км н/о +13.1 +10.5 84 +13 +13 1014.7 999.7
В 1 22 км н/о +11.3 +9.7 90 +11 +11 1014.8 999.7
Ю 1 13 км н/о +9.8 +8.7 93 +9 +9 1014.6 999.4
Ю 1 8000 м н/о +8.7 +7.9 95 +8 +8 1014.6 999.3
В 1 6000 м н/о +7.6 +6.8 95 +7 +7 1014.5 999.2
Ю 1 9000 м н/о +7.1 +6.7 97 +6 +6 1014.4 999.1
ЮВ 1 4900 м н/о +7.1 +6.7 97 +6 +6 1014.6 999.2
ЮВ 1 9000 м н/о +9.6 +9.1 97 +9 +9 1014.6 999.4
В 1 19 км 5/0
[Ac trans Ci sp]
+12.9 +10.4 85 +13 +16 1014.6 999.6
В 2 30 км 4/0
[Ac trans Ci sp]
+16.1 +11.0 72 +16 +21 1014.2 999.3 +6.8 +16.3
ЮВ 3 30 км 5/1 600 м
[Cu hum Ac trans Ci sp]
+19.2 +11.7 62 +20 +26 1014.1 999.4
ЮВ 3 30 км 6/1 1000 м
[Cu med, cong Ac trans Ci sp]
+20.8 +10.6 52 +23 +30 комфорт 1013.9 999.3
В 3 {7} 35 км 8/1 1500 м
[Cu hum Ci sp]
+21.2 +8.8 45 +22 +32 комфорт 1013.4 998.8
ЮВ 3 35 км 8/3 1500 м
[Cu med, cong Ci sp]
+21.3 +8.5 44 +22 +31 комфорт 1013.4 998.8
В 3 35 км 8/3 1500 м
[Cu med, cong Ci sp]
+22.3 +7.7 39 +23 +31 комфорт 1012.8 998.3
В 3 {7} 40 км 8/3 1500 м
[Cu med, cong Ci sp]
+23.1 +8.0 38 +24 +32 комфорт 1012.3 997.8
В 1 35 км 6/3 1500 м
[Cu med, cong Ci sp]
+22.6 +9.0 42 +24 +33 комфорт 1011.9 997.4
Ю 2 40 км 8/4 1500 м
[Cb cap Ci sp]
+22.8 +9.6 43 +24 +29 комфорт 1011.5 997.0
ЮЗ 2 45 км 9/4 1500 м
[Cb cap Ac trans Ci sp]
+22.3 +9.5 44 +24 +26 комфорт 1011.4 996.9
ЮЗ 2 40 км 9/4 1500 м
[Cb cap Ac As Ci sp]
+21.8 +10.6 49 +24 +25 комфорт 1011.1 996.6
З 2 40 км 9/4 1500 м
[Cb calv Ac trans Cs]
+20.3 +12.0 59 +23 +23 комфорт 1011.0 996.4
СЗ 2 45 км 8/4 1500 м
[Cb calv Ac trans Ci sp]
+19.4 +12.4 64 +21 +21 комфорт 1011.0 996.3 +16.1 +23.9
С 1 45 км 8/4 1500 м
[Sc Ac trans]
+16.4 +12.2 76 +17 +17 1011.4 996.6
ЮЗ 1 30 км 9/5 1500 м
[Cb calv Ac trans]
+15.4 +12.5 83 +16 +16 1011.7 996.8
СВ 1 24 км слаб. ливневой дождь н/о +15.7 +13.5 87 +16 +16 1012.0 997.1
штиль 0 6000 м н/о +14.4 +13.6 95 +14 +14 1011.8 996.9
Ю 2 4300 м н/о +13.7 +13.1 96 +13 +13 1011.8 996.8
штиль 0 3300 м н/о +13.7 +13.1 96 +13 +13 1011.8 996.8 3
С 1 3700 м н/о +13.2 +12.6 96 +13 +13 1011.9 996.9
штиль 0 3700 м в посл. час туман н/о +11.9 +11.3 96 +11 +11 1012.1 997.0
Ю 1 1900 м н/о +11.3 +10.8 97 +11 +11 1012.2 997.1
ЮЗ 1 4800 м н/о +12.4 +12.1 98 +12 +12 1012.5 997.5
Ю 1 15 км 8/0
[Ac trans Ci fib]
+15.4 +14.4 94 +16 +18 1012.5 997.6
В 1 29 км 8/0
[Ac trans Ci sp]
+17.9 +13.8 77 +19 +23 1012.6 997.8 +11.3 +19.4 3 3.0
В 1 30 км 8/0
[Ac und Cs]
+19.5 +13.7 69 +22 +28 комфорт 1012.7 998.0
З 1 35 км 8/1 1000 м
[Cu hum Ac trans Cs]
+20.5 +13.9 66 +24 +32 комфорт 1012.7 998.1
СЗ 2 40 км 8/1 1000 м
[Cu med, cong Ac trans Cs]
+21.6 +13.8 61 +24 +32 комфорт 1012.8 998.2
Ю 2 35 км 9/4 1000 м
[Cb calv Cs]
+23.2 +12.2 50 +26 +34 жарко 1012.6 998.1
З 3 45 км 9/6 600 м
[Cu Sc Ci sp]
+22.9 +11.0 47 +25 +30 комфорт 1012.8 998.3
З 3 40 км 9/9 600 м
[Cb calv]
+23.1 +11.8 49 +26 +27 жарко 1012.6 998.1
З 3 35 км 8/5 600 м
[Cb calv Cs]
+22.9 +11.6 49 +25 +30 комфорт 1012.5 998.0
З 2 45 км 5/4 600 м
[Cb calv Cs]
+24.4 +9.5 39 +25 +31 комфорт 1012.3 997.9
СЗ 2 45 км 6/5 600 м
[Cu med, cong Ci sp]
+24.9 +8.8 36 +25 +28 комфорт 1012.3 997.9
С 1 45 км 6/5 600 м
[Cb calv Ci sp]
+24.4 +8.8 37 +25 +27 комфорт 1012.1 997.7
С 1 45 км 8/5 1000 м
[Cb calv Ci sp]
+23.0 +11.1 47 +25 +26 комфорт 1012.5 998.0
Местоположение метеостанции Козенице (Польша): широта 51.57 долгота 21.55 высота над уровнем моря 126 м.
В архиве по умолчанию представлена погода в Козенице за последнюю неделю. Архивные данные за месяц целиком и за предыдущие месяцы, начиная с января 2011 года, Вы можете получить, выбрав интересующий диапазон дат из раскрывающегося списка и нажав кнопку "Найти!".
*Определитесь, кто Вы:
Внимание! Время в таблицах - всемирное. Для получения местного времени необходимо прибавить поправку, которая равна 1 ч.
Некоторые строки с данными для отдельных станций могут быть выделены курсивом. Это означает, что фактические данные отсутствуют по различным причинам, а приведенные значения являются расчетными модельными данными для данного пункта наблюдений.
Смотрите также архив погоды в соседних городах и на ближайших метеорологических станциях:
Партнеры нашего сайта:      
Пояснения к столбцам:
  • Ветер - указаны скорость ветра в м/с - средняя за 10 мин, порывы в срок и между сроками (в фигурных скобках) и направление, откуда дует ветер: С - северный,
  • СВ - северо-восточный, В - восточный, ЮВ - юго-восточный, Ю - южный, ЮЗ - юго-западный, З - западный, СЗ - северо-западный.
  • Видимость - горизонтальная дальность видимости в метрах или километрах. При видимости от 1 до 10 км при отсутствии осадков обычно наблюдается дымка, при ухудшении видимости до 1 км и менее - туман. В сухую погоду видимость может ухудшаться дымом, пылью или мглою.
  • Явления - указаны атмосферные явления, наблюдавшиеся в срок или в последний час перед сроком; фигурными скобками обозначены явления, наблюдавшиеся между сроками (за 1-3 часа до срока); квадратными скобками обозначены град или гололедные отложения с указанием их диаметра в мм.
  • Облачность - указаны через наклонную черту общая и нижняя облачность в баллах и высота нижней границы облаков в метрах; квадратными скобками обозначены формы облаков: Ci - перистые, Cs - перисто-слоистые, Cc - перисто-кучевые, Ac - высококучевые, As - высокослоистые, Sc - слоисто-кучевые, Ns - слоисто-дождевые, Cu - кучевые, Cb - кучево-дождевые. Подробнее классификацию облаков см. в Атласе облаков (PDF).
  • T - Температура воздуха - температура, измеренная на высоте 2 м над землей.
  • Td - Температура точки росы - температура, при понижении до которой содержащийся в воздухе водяной пар достигнет насыщения.
  • f - Относительная влажность воздуха - влажноcть воздуха, измеренная на высоте 2 м над землей.
  • Te - Эффективная температура - температура, которую ощущает одетый по сезону человек в тени. Характеристика душности погоды. При расчете учитывается влияние влажности воздуха и скорости ветра на теплоощущения человека.
  • Tes - Эффективная температура на солнце - температура, которую ощущает человек, с поправкой на солнечный нагрев. Характеристика знойности погоды. Зависит от высоты солнца над горизонтом, облачности и скорости ветра. Ночью, в пасмурную погоду, а также при ветре 12 м/с и более поправка равна нулю.
  • P - Атмосферное давление - приведенное к уровню моря атмосферное давление.
  • Po - Атмосферное давление - измеренное на уровне метеостанции атмосферное давление.
  • Tmin - Минимальная температура - минимум температуры воздуха на высоте 2 м над землей.
  • Tmax - Максимальная температура - максимум температуры воздуха на высоте 2 м над землей.
  • R - Количество осадков - Количество выпавших осадков за период времени, мм. При наведении курсора мыши на число - период времени, за который выпало указанное количество осадков.
  • R24 - Количество осадков - Количество выпавших осадков за 24 часа, мм.
  • S - Снежный покров - Высота снежного покрова, см. При наведении курсора мыши на число - состояние снежного покрова и степень покрытия местности в баллах.